This demonstration page uses our WeatherBlox Daily Observations layout. Learn more.

Left ArrowRight Arrow

Hourly Observations for December 18, 2019

Temp ( °F °C ) Dew Point ( °F °C ) Humidity (%) Winds ( mph kmh ) Pressure ( in mb ) Visibility ( mi km ) Precip ( " mm )
12:53 am 00:53 Clear 33 0.6 30 -1.1 89 89 Calm 30.02 1017 7 11 0.00 0.00
1:53 am 01:53 Clear 33 0.6 30 -1.1 89 89 Calm 30.01 1016 8 13 0.00 0.00
2:53 am 02:53 Mostly Clear 32 0 29 -1.7 88 88 Calm 30.02 1017 8 13 0.00 0.00
3:53 am 03:53 Cloudy 33 0.6 30 -1.1 89 89 N 3 6 30.01 1016 8 13 0.00 0.00
4:53 am 04:53 Cloudy 34 1.1 31 -0.6 89 89 WNW 5 7 30.02 1017 8 13 0.00 0.00
5:53 am 05:53 Cloudy 36 2.2 32 0 86 86 SSW 9 15 30.04 1017 10 16 0.00 0.00
6:53 am 06:53 Cloudy 39 3.9 34 1.1 82 82 Calm 30.06 1018 10 16 0.01 0.25
7:53 am 07:53 Cloudy 39 3.9 35 1.7 86 86 NE 3 6 30.06 1018 10 16 0.00 0.00
8:38 am 08:38 Cloudy with Light Rain 38 3.3 34 1.1 86 86 ESE 5 7 30.11 1020 5 8 0.00 0.00
8:50 am 08:50 Cloudy with Light Rain 37 3 34 1 87 87 Calm 30.12 1020 4 6 0.01 0.25
8:53 am 08:53 Cloudy with Light Rain 38 3.3 34 1.1 86 86 Calm 30.11 1020 4 6 0.01 0.25
9:53 am 09:53 Cloudy with Light Rain 40 4.4 36 2.2 86 86 NNE 5 7 30.11 1020 8 13 0.05 1.27
10:08 am 10:08 Cloudy with Light Rain 41 5 37 2.8 86 86 NNE 6 9 30.13 1020 6 10 0.01 0.25
10:16 am 10:16 Cloudy with Light Rain 41 5 37 2.8 86 86 NNE 6 9 30.13 1020 7 11 0.01 0.25
10:53 am 10:53 Cloudy with Light Rain 41 5 37 2.8 86 86 NE 5 7 30.11 1020 8 13 0.02 0.51
11:53 am 11:53 Cloudy with Light Rain 43 6.1 39 3.9 86 86 N 6 9 30.08 1019 8 13 0.00 0.00
12:53 pm 12:53 Cloudy with Mist and Fog 43 6.1 39 3.9 86 86 VRB 5 7 30.05 1018 4 6 0.00 0.00
1:42 pm 13:42 Cloudy with Mist and Fog 44 6.7 40 4.4 85 85 N 7 11 30.05 1018 6 10 0.01 0.25
1:53 pm 13:53 Cloudy 44 6.7 40 4.4 85 85 N 5 7 30.04 1017 7 11 0.01 0.25
2:53 pm 14:53 Cloudy with Mist and Fog 44 6.7 41 5 89 89 Calm 30.04 1017 3 5 0.00 0.00
3:14 pm 15:14 Cloudy with Mist and Fog 44 6.7 40 4.4 85 85 N 5 7 30.05 1018 2 3 0.00 0.00
3:23 pm 15:23 Cloudy with Mist and Fog 44 6.7 41 5 89 89 N 5 7 30.05 1018 6 10 0.00 0.00
3:53 pm 15:53 Cloudy 44 6.7 41 5 89 89 N 5 7 30.05 1018 9 14 0.00 0.00
4:53 pm 16:53 Cloudy with Mist and Fog 44 6.7 41 5 89 89 Calm 30.06 1018 4 6 0.00 0.00
5:53 pm 17:53 Cloudy with Light Rain 44 6.7 42 5.6 93 93 Calm 30.07 1018 4 6 0.00 0.00
6:53 pm 18:53 Cloudy with Rain 43 6.1 42 5.6 97 97 Calm 30.08 1019 4 6 0.01 0.25
7:53 pm 19:53 Cloudy with Rain 44 6.7 42 5.6 93 93 N 5 7 30.09 1019 5 8 0.00 0.00
8:53 pm 20:53 Cloudy with Rain 44 6.7 42 5.6 93 93 Calm 30.10 1019 3 4 0.02 0.51
9:09 pm 21:09 Cloudy with Rain 44 6.7 42 5.6 93 93 Calm 30.11 1020 3 5 0.01 0.25
9:53 pm 21:53 Cloudy with Rain 44 6.7 42 5.6 93 93 Calm 30.10 1019 5 8 0.01 0.25
10:53 pm 22:53 Cloudy with Rain 44 6.7 42 5.6 93 93 Calm 30.11 1020 3 5 0.00 0.00
11:02 pm 23:02 Cloudy with Rain 44 6.7 42 5.6 93 93 WNW 3 6 30.13 1020 3 4 0.00 0.00
11:16 pm 23:16 Cloudy with Rain 44 6.7 42 5.6 93 93 Calm 30.12 1020 2 3 0.01 0.25
11:27 pm 23:27 Cloudy with Rain 44 6.7 42 5.6 93 93 Calm 30.13 1020 2 3 0.01 0.25
11:53 pm 23:53 Cloudy with Rain 44 6.7 42 5.6 93 93 Calm 30.11 1020 2 3 0.02 0.51

Powered by AerisWeather